Powrót do katalogu

STARLINK-38086

AktywnyŁącznośćSSO
NORAD 69998·PAYLOAD·🇺🇸 United States

Wystrzelony Jul 11, 2026 z Vandenberg Space Force Base

Loading…

Następne Przeloty (najbliższe 24 godziny)

TLE

ŚwieżeSource: CelesTrak SupGP

Epoka: Sep 14, 2026, 21:09 UTC

1 69998C 26159Z   26257.88173611  .00059286  00000+0  39850-3 0  2575
2 69998  97.2846  99.7278 0001472  87.7507 236.5866 15.75147938    16

Śledź STARLINK-38086 w czasie rzeczywistym z AllMySat

Download on the App Store